Regional Weather Roundup
Issued by NWS Northern Indiana

Home | Current Version | Previous Version | Text Only | Print | Product List | Glossary On
Versions: 1 2 3 4 5 6 7 8 9 10 11 12 13 14 15 16 17 18 19 20 21 22 23 24 25 26 27 28 29 30 31 32 33 34 35 36 37 38 39 40 41 42 43 44 45 46 47 48 49 50
000
ASUS43 KIWX 291910
RWRIWX

KIWX WEATHER ROUNDUP
NATIONAL WEATHER SERVICE NORTHERN INDIANA
300 PM EDT FRI AUG 29 2014

NOTE: "FAIR" INDICATES FEW OR NO CLOUDS BELOW 12,000 FEET WITH NO
SIGNIFICANT WEATHER AND/OR OBSTRUCTIONS TO VISIBILITY.

* THESE STATIONS ARE NOT UNDER NWS QUALITY CONTROL. THEY ALSO MAY NOT
  REPORT WEATHER SUCH AS PRECIPITATION OR FOG.

INZ001>027-292000-
NORTHERN INDIANA

CITY           SKY/WX    TMP DP  RH WIND       PRES   REMARKS
GARY*          PTSUNNY   84  72  65 S7        29.96F
VALPARAISO     CLOUDY    78  72  81 SE7       29.99F
MICHIGAN CITY* LGT RAIN  73  68  83 S6        30.00S
LAPORTE*       CLOUDY    73  73 100 CALM      30.01F THUNDER
KNOX*          CLOUDY    79  68  69 S8        29.99F
SOUTH BEND     PTSUNNY   76  71  85 S5        30.02S THUNDER
GOSHEN         MOSUNNY   83  69  62 SE12      30.02F
MONTICELLO*    MOSUNNY   81  72  74 S7        29.99F
LOGANSPORT*    CLOUDY    81  68  65 SE7       30.01F
ROCHESTER*     MOSUNNY   81  70  69 S6        30.02F
WARSAW*        MOSUNNY   81  70  69 S7        30.02F
ANGOLA*        MOSUNNY   81  66  61 S13       30.05F
FORT WAYNE     PTSUNNY   79  68  69 SE9       30.05F
HUNTINGTON*    MOSUNNY   80  69  69 SE5       30.03F
PERU/GRISSOM   MOSUNNY   83  74  74 SE9       30.01F
MARION*        MOSUNNY   80  66  62 S7        30.04F

$$
INZ028>050-292000-
CENTRAL INDIANA

CITY           SKY/WX    TMP DP  RH WIND       PRES   REMARKS
LAFAYETTE      SUNNY     83  71  67 SE9       29.97F
KOKOMO*        MOSUNNY   81  70  69 S10       30.02F
MUNCIE*        MOSUNNY   81  66  60 S10       30.04F
INDIANAPOLIS   MOSUNNY   83  69  62 SE10      30.00F

$$
MIZ043>046-050>051-056>058-064>065-071>073-077>080-292000-
SOUTHWEST LOWER MICHIGAN

CITY           SKY/WX    TMP DP  RH WIND       PRES   REMARKS
BATTLE CREEK   CLOUDY    76  63  64 S8        30.05F
BENTON HARBOR  PTSUNNY   76  69  79 SE7       29.99F
COLDWATER*     PTSUNNY   80  64  57 SE7       30.04F
HILLSDALE*     MOSUNNY   79  62  56 S5        30.07F
HOLLAND        CLOUDY    79  69  71 E7        30.01F
GRAND RAPIDS   PTSUNNY   75  67  76 SE7       30.03F
KALAMAZOO      PTSUNNY   77  65  66 SE8       30.03F
STURGIS*         N/A     81  68  65 S8        30.03F
THREE RIVERS*  CLOUDY    75  69  81 S7        30.04S

$$
OHZ001>008-015>018-024>025-292000-
NORTHWEST OHIO

CITY           SKY/WX    TMP DP  RH WIND       PRES   REMARKS
WAUSEON*       FAIR      82  63  51 SE9       30.07F
DEFIANCE       PTSUNNY   81  62  52 S6        30.06F
FINDLAY        SUNNY     81  62  52 S8        30.07F
TOLEDO EXPRESS MOSUNNY   81  60  48 S6        30.07F
TOLEDO METCALF MOSUNNY   81  58  45 E9        30.08F
LIMA           SUNNY     81  64  56 S9        30.08F

$$
&&



USA.gov is the U.S. government's official web portal to all federal, state and local government web resources and services.